Regional Weather Roundup
Issued by NWS Cleveland, OH

Home | Current Version | Previous Version | Graphics & Text | Print | Product List | Glossary On
Versions: 1 2 3 4 5 6 7 8 9 10 11 12 13 14 15 16 17 18 19 20 21 22 23 24 25 26 27 28 29 30 31 32 33 34 35 36 37 38 39 40 41 42 43 44 45 46 47 48 49 50
000
ASUS41 KCLE 272102
RWRCLE
OHIO REGIONAL WEATHER ROUNDUP
NATIONAL WEATHER SERVICE CLEVELAND, OH
400 PM EST TUE JAN 27 2015

NOTE: "FAIR" INDICATES FEW OR NO CLOUDS BELOW 12,000 FEET WITH NO
SIGNIFICANT WEATHER AND/OR OBSTRUCTIONS TO VISIBILITY.

OHZ001>008-015>018-024>027-034-035-043-044-272200-
   NORTHWEST OHIO

CITY           SKY/WX    TMP DP  RH WIND       PRES   REMARKS
DEFIANCE       SUNNY     27  10  49 N3        30.15R
FINDLAY        SUNNY     23  12  62 NW9       30.12R WCI  13
TOLEDO EXPRESS MOSUNNY   26  13  57 NW7       30.14R WCI  18
TOLEDO EXEC    SUNNY     27  11  51 NW8       30.14R WCI  19
LIMA           SUNNY     21  12  68 NW14      30.12R WCI   8
$$

OHZ009>014-019>023-028>033-038-089-272200-
   NORTHEAST OHIO

CITY           SKY/WX    TMP DP  RH WIND       PRES   REMARKS
CLE-HOPKINS    PTSUNNY   18   9  68 N13       30.12R WCI   5
CLE-LAKEFRONT  MOSUNNY   19   9  65 N6        30.11R WCI  11
CUY CO. ARPT   PTSUNNY   19  12  73 N12       30.08R WCI   7
LORAIN-ELYRIA  SUNNY     19  10  68 N15       30.10R WCI   5
ASHTABULA      FLURRIES  19  12  74 N7        30.06R WCI  10
AKRON-CANTON   FLURRIES  20  11  68 N12       30.03R WCI   8
WOOSTER        PTSUNNY   18  10  71 N12       30.06R WCI   5
MANSFIELD      MOSUNNY   18  11  74 NW13      30.06R WCI   5
YOUNGSTOWN     LGT SNOW  19  12  74 N14       30.02R WCI   6
$$

OHZ042-051>053-060>062-070>072-077>081-272200-
  SOUTHWEST OHIO

CITY           SKY/WX    TMP DP  RH WIND       PRES   REMARKS
CINC-COVINGTON SUNNY     30  13  49 N13       30.10R WCI  20
CINC-LUNKEN    SUNNY     30  14  51 N10       30.14R WCI  21
HAMILTON       SUNNY     28  14  55 N9        30.14R WCI  19
DAYTON         MOSUNNY   23  13  65 NW8       30.13R WCI  14
WRIGHT-PAT AFB MOSUNNY   23  13  65 NW8       30.12R WCI  14
DAYTON GENERAL PTSUNNY   24  13  62 N8        30.11R WCI  15
WILMINGTON     MOSUNNY   24  12  60 N9        30.09R WCI  14
$$

OHZ036-037-039>041-045>050-054>059-063>069-073>076-082>088-272200-
  CENTRAL AND SOUTHEAST OHIO

CITY           SKY/WX    TMP DP  RH WIND       PRES   REMARKS
COLUMBUS       MOSUNNY   23  12  62 NW14      30.08R WCI  11
OSU AIRPORT    MOSUNNY   21  11  65 N10       30.09R WCI  10
BOLTON FIELD   MOSUNNY   21  12  68 NW10      30.09R WCI  10
RICKENBACK AFB MOSUNNY   22  13  69 N10       30.09R WCI  11
NEWARK         CLOUDY    23  13  65 N7        30.07R WCI  15
MARION         CLOUDY    20  11  68 NW12      30.10R WCI   8
LANCASTER      CLOUDY    23  14  68 N8        30.08R WCI  14
ZANESVILLE     CLOUDY    21  12  68 NW10      30.06R WCI  10
NEW PHILLY     CLOUDY    22  13  68 NW9       30.06R WCI  12
$$


USA.gov is the U.S. government's official web portal to all federal, state and local government web resources and services.